Time,TemperatureF,DewpointF,PressureIn,WindDirection,WindDirectionDegrees,WindSpeedMPH,WindSpeedGustMPH,Humidity,HourlyPrecipIn,Conditions,Clouds,dailyrainin,SolarRadiationWatts/m^2,SoftwareType,DateUTC
2013-03-19 00:00:00,27.0,27.0,-100.00,WSW,247,2.0,-999.0,97,-99.99,,,-99.99,0.000000,,2013-03-19 04:00:00,
2013-03-19 00:43:00,27.0,27.0,-100.00,WSW,247,2.0,-999.0,97,-99.99,,,-99.99,0.000000,,2013-03-19 04:43:00,
2013-03-19 00:53:00,27.0,27.0,-100.00,WSW,247,2.0,-999.0,97,-99.99,,,-99.99,0.000000,,2013-03-19 04:53:00,
2013-03-19 01:00:00,27.0,26.0,-100.00,WSW,247,3.0,-999.0,97,-99.99,,,-99.99,0.000000,,2013-03-19 05:00:00,
2013-03-19 01:43:00,27.0,26.0,-100.00,WSW,247,3.0,-999.0,97,-99.99,,,-99.99,0.000000,,2013-03-19 05:43:00,
2013-03-19 01:52:00,27.0,26.0,-100.00,WSW,247,3.0,-999.0,97,-99.99,,,-99.99,0.000000,,2013-03-19 05:52:00,
2013-03-19 03:00:00,26.0,25.0,-100.00,WSW,247,3.0,-999.0,97,-99.99,,,-99.99,0.000000,,2013-03-19 07:00:00,
2013-03-19 03:42:00,26.0,25.0,-100.00,WSW,247,3.0,-999.0,97,-99.99,,,-99.99,0.000000,,2013-03-19 07:42:00,
2013-03-19 03:53:00,26.0,25.0,-100.00,WSW,247,3.0,-999.0,97,-99.99,,,-99.99,0.000000,,2013-03-19 07:53:00,
2013-03-19 04:00:00,23.0,22.0,-100.00,WSW,247,5.0,-999.0,95,-99.99,,,-99.99,0.000000,,2013-03-19 08:00:00,
2013-03-19 04:43:00,23.0,22.0,-100.00,WSW,247,5.0,-999.0,95,-99.99,,,-99.99,0.000000,,2013-03-19 08:43:00,
2013-03-19 04:52:00,23.0,22.0,-100.00,WSW,247,5.0,-999.0,95,-99.99,,,-99.99,0.000000,,2013-03-19 08:52:00,
2013-03-19 05:00:00,21.0,20.0,-100.00,West,270,6.0,-999.0,94,-99.99,,,-99.99,0.000000,,2013-03-19 09:00:00,
2013-03-19 05:43:00,21.0,20.0,-100.00,West,270,6.0,-999.0,94,-99.99,,,-99.99,0.000000,,2013-03-19 09:43:00,
2013-03-19 05:53:00,21.0,20.0,-100.00,West,270,6.0,-999.0,94,-99.99,,,-99.99,0.000000,,2013-03-19 09:53:00,
2013-03-19 06:00:00,20.0,18.0,-100.00,WNW,292,6.0,-999.0,93,-99.99,,,-99.99,0.000000,,2013-03-19 10:00:00,
2013-03-19 06:42:00,20.0,18.0,-100.00,WNW,292,6.0,-999.0,93,-99.99,,,-99.99,0.000000,,2013-03-19 10:42:00,
2013-03-19 06:53:00,20.0,18.0,-100.00,WNW,292,6.0,-999.0,93,-99.99,,,-99.99,0.000000,,2013-03-19 10:53:00,
2013-03-19 07:00:00,19.0,18.0,-100.00,West,270,5.0,-999.0,93,-99.99,,,-99.99,0.000000,,2013-03-19 11:00:00,
2013-03-19 07:43:00,19.0,18.0,-100.00,West,270,5.0,-999.0,93,-99.99,,,-99.99,0.000000,,2013-03-19 11:43:00,
2013-03-19 07:52:00,19.0,18.0,-100.00,West,270,5.0,-999.0,93,-99.99,,,-99.99,0.000000,,2013-03-19 11:52:00,
2013-03-19 09:00:00,19.0,17.0,-100.00,WSW,247,5.0,-999.0,93,-99.99,,,-99.99,19.719999,,2013-03-19 13:00:00,
2013-03-19 09:42:00,19.0,17.0,-100.00,WSW,247,5.0,-999.0,93,-99.99,,,-99.99,19.719999,,2013-03-19 13:42:00,
2013-03-19 09:53:00,19.0,17.0,-100.00,WSW,247,5.0,-999.0,93,-99.99,,,-99.99,19.719999,,2013-03-19 13:53:00,
2013-03-19 10:00:00,20.0,18.0,-100.00,West,270,6.0,-999.0,93,-99.99,,,-99.99,64.959999,,2013-03-19 14:00:00,
2013-03-19 10:42:00,20.0,18.0,-100.00,West,270,6.0,-999.0,93,-99.99,,,-99.99,64.959999,,2013-03-19 14:42:00,
2013-03-19 10:52:00,20.0,18.0,-100.00,West,270,6.0,-999.0,93,-99.99,,,-99.99,64.959999,,2013-03-19 14:52:00,
2013-03-19 12:00:00,23.0,19.0,-100.00,WNW,292,9.0,-999.0,85,-99.99,,,-99.99,368.880005,,2013-03-19 16:00:00,
2013-03-19 12:44:00,23.0,19.0,-100.00,WNW,292,9.0,-999.0,85,-99.99,,,-99.99,368.880005,,2013-03-19 16:44:00,
2013-03-19 12:54:00,23.0,19.0,-100.00,WNW,292,9.0,-999.0,85,-99.99,,,-99.99,368.880005,,2013-03-19 16:54:00,
2013-03-19 13:00:00,25.0,18.0,-100.00,WNW,292,10.0,-999.0,75,-99.99,,,-99.99,607.840027,,2013-03-19 17:00:00,
2013-03-19 13:44:00,25.0,18.0,-100.00,WNW,292,10.0,-999.0,75,-99.99,,,-99.99,607.840027,,2013-03-19 17:44:00,
2013-03-19 13:53:00,25.0,18.0,-100.00,WNW,292,10.0,-999.0,75,-99.99,,,-99.99,607.840027,,2013-03-19 17:53:00,
2013-03-19 15:00:00,28.0,15.0,-100.00,WNW,292,11.0,-999.0,59,-99.99,,,-99.99,590.440002,,2013-03-19 19:00:00,
2013-03-19 15:43:00,28.0,15.0,-100.00,WNW,292,11.0,-999.0,59,-99.99,,,-99.99,590.440002,,2013-03-19 19:43:00,
2013-03-19 15:53:00,28.0,15.0,-100.00,WNW,292,11.0,-999.0,59,-99.99,,,-99.99,590.440002,,2013-03-19 19:53:00,
2013-03-19 16:00:00,29.0,15.0,-100.00,WNW,292,10.0,-999.0,56,-99.99,,,-99.99,482.559998,,2013-03-19 20:00:00,
2013-03-19 16:43:00,29.0,15.0,-100.00,WNW,292,10.0,-999.0,56,-99.99,,,-99.99,482.559998,,2013-03-19 20:43:00,
2013-03-19 16:53:00,29.0,15.0,-100.00,WNW,292,10.0,-999.0,56,-99.99,,,-99.99,482.559998,,2013-03-19 20:53:00,
2013-03-19 18:00:00,29.0,14.0,-100.00,WNW,292,10.0,-999.0,52,-99.99,,,-99.99,367.720001,,2013-03-19 22:00:00,
2013-03-19 18:44:00,29.0,14.0,-100.00,WNW,292,10.0,-999.0,52,-99.99,,,-99.99,367.720001,,2013-03-19 22:44:00,
2013-03-19 18:53:00,29.0,14.0,-100.00,WNW,292,10.0,-999.0,52,-99.99,,,-99.99,367.720001,,2013-03-19 22:53:00,
2013-03-19 19:00:00,26.0,12.0,-100.00,NW,315,10.0,-999.0,56,-99.99,,,-99.99,110.199997,,2013-03-19 23:00:00,
2013-03-19 19:43:00,26.0,12.0,-100.00,NW,315,10.0,-999.0,56,-99.99,,,-99.99,110.199997,,2013-03-19 23:43:00,
2013-03-19 19:53:00,26.0,12.0,-100.00,NW,315,10.0,-999.0,56,-99.99,,,-99.99,110.199997,,2013-03-19 23:53:00,
2013-03-19 20:00:00,25.0,12.0,-100.00,WNW,292,9.0,-999.0,57,-99.99,,,-99.99,20.879999,,2013-03-20 00:00:00,
2013-03-19 20:43:00,25.0,12.0,-100.00,WNW,292,9.0,-999.0,57,-99.99,,,-99.99,20.879999,,2013-03-20 00:43:00,
2013-03-19 20:52:00,25.0,12.0,-100.00,WNW,292,9.0,-999.0,57,-99.99,,,-99.99,20.879999,,2013-03-20 00:52:00,
2013-03-19 22:00:00,23.0,9.0,-100.00,WNW,292,7.0,-999.0,54,-99.99,,,-99.99,0.000000,,2013-03-20 02:00:00,
2013-03-19 22:43:00,23.0,9.0,-100.00,WNW,292,7.0,-999.0,54,-99.99,,,-99.99,0.000000,,2013-03-20 02:43:00,
2013-03-19 22:53:00,23.0,9.0,-100.00,WNW,292,7.0,-999.0,54,-99.99,,,-99.99,0.000000,,2013-03-20 02:53:00,
2013-03-19 23:00:00,23.0,9.0,-100.00,WNW,292,7.0,-999.0,56,-99.99,,,-99.99,0.000000,,2013-03-20 03:00:00,
2013-03-19 23:43:00,23.0,9.0,-100.00,WNW,292,7.0,-999.0,56,-99.99,,,-99.99,0.000000,,2013-03-20 03:43:00,
2013-03-19 23:53:00,23.0,9.0,-100.00,WNW,292,7.0,-999.0,56,-99.99,,,-99.99,0.000000,,2013-03-20 03:53:00,